Location: Remedello Sotto
(45.2500°N, 10.3667°E)
Time: 06:27:06
(UTC+00:00)

USA 81 - Pass Details

Date: 03 February 2023
Orbit: 784 x 788 km, 85.0° (Epoch: 26 March)

Event Time Altitude Azimuth Distance (km) Brightness Sun altitude
Rises 18:22:37 0° 170° (S) 3,269 7.2 -20.4°
Reaches altitude 10° 18:25:00 10° 165° (SSE) 2,344 6.4 -20.8°
Maximum altitude 18:30:07 54° 90° (E) 959 4.1 -21.7°
Drops below altitude 10° 18:35:15 10° 14° (NNE) 2,360 6.4 -22.6°
Sets 18:37:40 0° 10° (N) 3,293 7.2 -23.0°
